Weather History for Bloomington, IN

Change the Weather History Date:

Thursday, January 26, 2006

  Actual Average Record
Temperature  
Mean Temperature 31 °F 30 °F  
Max Temperature 43 °F 39 °F 54 °F (2002)
Min Temperature 19 °F 21 °F -4 °F (2003)
Degree Days  
Heating Degree Days 34 35  
Month to date heating degree days 932  
Since 1 July heating degree days 3005  
Cooling Degree Days 0 0  
Month to date cooling degree days 0  
Year to date cooling degree days 0  
Moisture  
Dew Point 20 °F    
Average Humidity 68    
Maximum Humidity 89    
Minimum Humidity 40    
Precipitation  
Precipitation 0.00 in 0.08 in 0.54 in (2012)
Month to date precipitation 2.86  
Year to date precipitation 2.86  
Sea Level Pressure  
Sea Level Pressure 30.53 in    
Wind  
Wind Speed 1 mph (SSE)    
Max Wind Speed 5 mph    
Max Gust Speed -    
Visibility 9 miles    
Events      
T = Trace of Precipitation, MM = Missing Value Source: NWS Daily Summary

Daily Weather History Graph

Daily Weather History Graph

Search for Another Location

Airport:

Trip Planner

Search our weather history database for the weather conditions in past years. The results will help you decide how hot, cold, wet, or windy it might be!

Date:

Astronomy

Jan. 26, 2006 Rise Set
Actual Time 7:58 AM EST 6:00 PM EST
Civil Twilight 7:29 AM EST 6:28 PM EST
Nautical Twilight 6:57 AM EST 7:01 PM EST
Astronomical Twilight 6:25 AM EST 7:32 PM EST
Moon 5:37 AM EST (1/26) 2:29 PM EST (1/26)
Length of Visible Light 10h 59m
Length of Day
10h 02m
Waning Crescent, 12% of the Moon is Illuminated
Jan 26
Waning Crescent
Jan 29
New
Feb 5
First Quarter
Feb 12
Full
Feb 21
Last Quarter

Hourly Weather History & Observations

Time (EST) Temp. Windchill Dew Point Humidity Pressure Visibility Wind Dir Wind Speed Gust Speed Precip Events Conditions
12:53 AM 24.1 °F - 19.0 °F 81% 30.46 in 10.0 mi Calm Calm - N/A   Clear
1:53 AM 21.9 °F - 18.0 °F 85% 30.46 in 10.0 mi Calm Calm - N/A   Clear
2:53 AM 24.1 °F - 19.0 °F 81% 30.48 in 10.0 mi Calm Calm - N/A   Clear
3:53 AM 21.0 °F - 17.1 °F 85% 30.46 in 8.0 mi Calm Calm - N/A   Clear
4:53 AM 19.9 °F - 17.1 °F 89% 30.47 in 8.0 mi Calm Calm - N/A   Clear
5:53 AM 21.0 °F - 16.0 °F 81% 30.48 in 7.0 mi Calm Calm - N/A   Clear
6:53 AM 19.9 °F - 16.0 °F 85% 30.51 in 6.0 mi Calm Calm - N/A   Clear
7:53 AM 19.0 °F - 15.1 °F 85% 30.52 in 6.0 mi Calm Calm - N/A   Clear
8:53 AM 23.0 °F - 19.0 °F 85% 30.55 in 6.0 mi Calm Calm - N/A   Clear
9:53 AM 30.0 °F 26.5 °F 24.1 °F 79% 30.58 in 8.0 mi SW 3.5 mph - N/A   Clear
10:53 AM 35.1 °F 32.2 °F 24.1 °F 64% 30.58 in 9.0 mi Variable 3.5 mph - N/A   Clear
11:53 AM 37.0 °F 34.5 °F 23.0 °F 57% 30.58 in 10.0 mi East 3.5 mph - N/A   Clear
12:53 PM 39.9 °F - 23.0 °F 51% 30.56 in 10.0 mi Calm Calm - N/A   Clear
1:53 PM 41.0 °F 39.0 °F 21.0 °F 45% 30.53 in 10.0 mi South 3.5 mph - N/A   Clear
2:53 PM 42.1 °F - 19.9 °F 41% 30.52 in 10.0 mi Calm Calm - N/A   Clear
4:53 PM 43.0 °F 40.3 °F 19.9 °F 40% 30.53 in 10.0 mi SSE 4.6 mph - N/A   Clear
5:53 PM 39.0 °F 35.7 °F 19.9 °F 46% 30.54 in 10.0 mi South 4.6 mph - N/A   Clear
6:53 PM 33.1 °F 30.0 °F 21.0 °F 61% 30.54 in 10.0 mi ESE 3.5 mph - N/A   Clear
7:53 PM 30.0 °F - 21.0 °F 69% 30.55 in 10.0 mi Calm Calm - N/A   Clear
8:53 PM 28.9 °F 25.2 °F 19.9 °F 69% 30.55 in 10.0 mi SE 3.5 mph - N/A   Clear
9:53 PM 30.0 °F - 19.9 °F 66% 30.55 in 10.0 mi Calm Calm - N/A   Clear
10:53 PM 30.0 °F 26.5 °F 19.9 °F 66% 30.54 in 10.0 mi ESE 3.5 mph - N/A   Clear
11:53 PM 30.9 °F 27.5 °F 19.9 °F 64% 30.54 in 10.0 mi SSE 3.5 mph - N/A   Clear